Regional Weather Roundup
Issued by NWS Northern Indiana

Home | Current Version | Previous Version | Text Only | Print | Product List | Glossary Off
Versions: 1 2 3 4 5 6 7 8 9 10 11 12 13 14 15 16 17 18 19 20 21 22 23 24 25 26 27 28 29 30 31 32 33 34 35 36 37 38 39 40 41 42 43 44 45 46 47 48 49 50

000
ASUS43 KIWX 010700
RWRIWX

KIWX WEATHER ROUNDUP
NATIONAL WEATHER SERVICE NORTHERN INDIANA
200 AM EST WED MAR 01 2017

NOTE: "FAIR" INDICATES FEW OR NO CLOUDS BELOW 12,000 FEET WITH NO
SIGNIFICANT WEATHER AND/OR OBSTRUCTIONS TO VISIBILITY.

* THESE STATIONS ARE NOT UNDER NWS QUALITY CONTROL. THEY ALSO MAY NOT
  REPORT WEATHER SUCH AS PRECIPITATION OR FOG.

INZ001>027-010800-
NORTHERN INDIANA

CITY           SKY/WX    TMP DP  RH WIND       PRES   REMARKS
VALPARAISO     TSTM      55  53  93 W5        29.51F FOG
MICHIGAN CITY* HVY RAIN  48  48 100 SE9       29.48F
KNOX*          CLOUDY    52  41  66 W3        29.55R
SOUTH BEND     RAIN      50  50 100 CALM      29.55S FOG
GOSHEN         TSTM      51  47  86 MISG        N/A  VSB 1
ANGOLA*        MOCLDY    52  43  71 SE7       29.47F
FORT WAYNE     CLOUDY    60  51  72 S18G26    29.52F
PERU/GRISSOM   CLOUDY    60  60  99 S21G33    29.49F

$$
INZ028>050-010800-
CENTRAL INDIANA

CITY           SKY/WX    TMP DP  RH WIND       PRES   REMARKS
LAFAYETTE      CLOUDY    63  59  87 SW14G23   29.49F
KOKOMO*        MOCLDY    59  56  89 S21       29.53F
MUNCIE*        CLOUDY    62  57  83 S13G21    29.55F
INDIANAPOLIS   CLOUDY    61  57  87 S16       29.56F

$$
MIZ043>046-050>051-056>058-064>065-071>073-077>080-010800-
SOUTHWEST LOWER MICHIGAN

CITY           SKY/WX    TMP DP  RH WIND       PRES   REMARKS
BATTLE CREEK   RAIN      53  52  96 W13       29.53R
BENTON HARBOR  TSTM      52  49  89 S9        29.48F FOG
COLDWATER*     CLOUDY    53  53  99 SE8       29.46F
HILLSDALE*     CLOUDY    52  50  93 S5        29.50F
HOLLAND        RAIN      50  48  93 W10G26    29.47F FOG
GRAND RAPIDS   RAIN      53  51  93 W14       29.48R FOG
KALAMAZOO      TSTM      54  51  90 SW10      29.52R FOG
STURGIS*       CLOUDY    53  51  93 NW16      29.52R
THREE RIVERS*  HVY RAIN  52  50  95 NW14G29   29.55R

$$
OHZ001>008-015>018-024>025-010800-
NORTHWEST OHIO

CITY           SKY/WX    TMP DP  RH WIND       PRES   REMARKS
DEFIANCE       CLOUDY    60  50  69 SW3       29.55F
FINDLAY        CLOUDY    61  50  67 S22G31    29.53F
TOLEDO EXPRESS CLOUDY    56  52  86 CALM      29.56F
TOLEDO METCALF CLOUDY    59  52  77 NW9       29.59S

$$
AND FOR LAKE MICHIGAN COASTAL AND OPEN LAKE BUOY OBSERVATIONS

STATION/POSITION TEMP    WIND        PRES    VSBY  WAVE
                 AIR SEA DIR/SP/G                  HT/PER
                 (F)     (DEG/KT/KT) (MB)    (MI)  (FT/S)
CALUMET HARBOR    52     140/  5/ 10  997.4F
MICHIGAN CITY     49     170/  6/  7   N/A
BURNS HARBOR      50     130/  8/ 10  998.6F

$$
&&




USA.gov is the U.S. government's official web portal to all federal, state and local government web resources and services.